TITAN 3C TRANSTAGE DEB, 43454

Orbit data source: Space-Track

TITAN 3C TRANSTAGE DEB, 43454 is space debris in GEO originally from a launch on Sun, 09 Feb 1969 UTC launched from the Air Force Eastern Test Range (AFETR). Debris objects in space refer to the collection of defunct objects orbiting the Earth. Examples of debris include non-operational satellites, rocket bodies, and fragments generated from explosions, collisions, or faulty payload assembly.

Not visible in the next 10 days
Identifier
43454, 1969-013M
Orbit
GEO
Country
Flag of USUS
Related business
Manufacturer
Martin Marietta
Mission
Spacecraft
Bus & Motor
Unknown
Mass
Unknown
Launch date (UTC)
1969-02-09 (57 years ago)
Launch vehicle
Unknown
Launch site
Air Force Eastern Test Range (AFETR)
Object type
Payload
Rocket body
Debris
Shape & HBR
Unknown shape, 1.1 m
Radar Cross Section
Medium (>0.1 m² and <1 m²)

Expand to show TLE details & history
Last TLE update: 1 day ago

TLE from 1 day ago
0 TITAN 3C TRANSTAGE DEB
1 43454U 69013M   26169.23427516 -.00000130  00000-0  00000+0 0  9997
2 43454   1.1434 122.8506 0546409 349.6695   8.2863  1.02844687 30649
Epoch: 2026-06-18T05:37Z
TLE epoch observation values (Epoch: 2026-06-18T05:37:21.373Z)
Latitude
Longitude
130.99628°
Altitude
32,835.224 km
Speed
3.273 km/s
True Right ascension
08h 07m 15s
True Declination
0° 00' 00"
Sunlit
Object was in daylight at epoch
Visualization orbit readout
Latitude
Unknown
Longitude
Unknown
Altitude
Unknown
Speed
Unknown
Apparent Right ascension
Unknown
Apparent Declination
Unknown
Sunlit
N/A
Visualization observer readout
Local Sidereal Time
23:18:39
Azimuth
Unknown
Elevation
Unknown
Doppler factor
Unknown
Orbital elements
Apogee altitude
37,346.879 km
Perigee altitude
32,816.097 km
Semi-major axis
41,459.625 km
Eccentricity
0.05464
Inclination
1.1434°
RAAN
122.8506°
Arg. of periapsis
349.6695°
True anomaly
9.25385°
Mean anomaly
8.2863°
Eccentric anomaly
8.76327°
Mean motion
0.2571 °/min
Orbital period
1,400.22 mins
BSTAR
0
Loading maneuver chart data...
Computing Atmospheric mass density...

Documentation

Showing up to 5 results
|